When you browse on this site, cookies collect data to enhance your experience and personalize the content and advertising you see.
Visit our Privacy Policy to learn more. By continuing to use the site, you agree to this use of cookies and data.
  • In Lithuania
  • List of Countries
  • For 7 days
  • Water Temperature
  • Weather Map
  • Weather Widgets
  • user-avatar
    Login

    Hourly Weather Sniardewno

    Today, 14 December, Saturday

    Time Temperature Precipitation Wind Pressure Humidity
    00:00 +1°C° 0 mm 6 mps 734 mmHg 85%
    01:00 +1°C° 0 mm 5 mps 734 mmHg 85%
    02:00 +1°C° 0 mm 6 mps 734 mmHg 86%
    03:00 -1°C° 0 mm 6 mps 734 mmHg 87%
    04:00 -1°C° 0 mm 6 mps 734 mmHg 89%
    05:00 -1°C° 0 mm 6 mps 734 mmHg 88%
    06:00 +1°C° 0 mm 6 mps 734 mmHg 88%
    07:00 +1°C° 0 mm 6 mps 735 mmHg 87%
    08:00 +1°C° 0 mm 6 mps 735 mmHg 86%
    09:00 0°C° 0 mm 7 mps 735 mmHg 85%
    10:00 0°C° 0 mm 7 mps 735 mmHg 84%
    11:00 0°C° 0.1 mm 7 mps 735 mmHg 87%
    12:00 0°C° 0.1 mm 7 mps 734 mmHg 89%
    13:00 0°C° 0.1 mm 7 mps 734 mmHg 91%
    14:00 +1°C° 0.1 mm 6 mps 735 mmHg 91%
    15:00 +1°C° 0.1 mm 6 mps 735 mmHg 91%
    16:00 +2°C° 0.1 mm 5 mps 735 mmHg 90%
    17:00 +2°C° 0 mm 5 mps 735 mmHg 90%
    18:00 +2°C° 0 mm 5 mps 735 mmHg 89%
    19:00 +2°C° 0 mm 5 mps 734 mmHg 89%
    20:00 +1°C° 0.3 mm 5 mps 734 mmHg 91%
    21:00 +1°C° 0.3 mm 5 mps 734 mmHg 93%
    22:00 +1°C° 0.3 mm 5 mps 734 mmHg 95%
    23:00 +1°C° 0.6 mm 5 mps 735 mmHg 94%

    Tomorrow, 15 December, Sunday

    Time Temperature Precipitation Wind Pressure Humidity
    00:00 +1°C° 0.6 mm 6 mps 735 mmHg 94%
    01:00 +1°C° 0.6 mm 6 mps 736 mmHg 93%
    02:00 +1°C° 0.1 mm 6 mps 736 mmHg 90%
    03:00 +1°C° 0.1 mm 6 mps 737 mmHg 88%
    04:00 +1°C° 0.1 mm 6 mps 737 mmHg 85%
    05:00 +1°C° 0 mm 6 mps 738 mmHg 85%
    06:00 +1°C° 0 mm 5 mps 739 mmHg 85%
    07:00 +1°C° 0 mm 5 mps 739 mmHg 85%
    08:00 +1°C° 0 mm 5 mps 740 mmHg 84%
    09:00 +1°C° 0 mm 5 mps 741 mmHg 82%
    10:00 +1°C° 0 mm 5 mps 741 mmHg 81%
    11:00 +1°C° 0 mm 5 mps 741 mmHg 80%
    12:00 +1°C° 0 mm 6 mps 742 mmHg 79%
    13:00 +1°C° 0 mm 6 mps 742 mmHg 78%
    14:00 +1°C° 0 mm 6 mps 742 mmHg 78%
    15:00 +1°C° 0 mm 5 mps 741 mmHg 77%
    16:00 +1°C° 0 mm 5 mps 741 mmHg 76%
    17:00 +1°C° 0.3 mm 5 mps 741 mmHg 80%
    18:00 +2°C° 0.3 mm 5 mps 741 mmHg 84%
    19:00 +2°C° 0.3 mm 5 mps 741 mmHg 88%
    20:00 +2°C° 0 mm 5 mps 742 mmHg 88%
    21:00 +2°C° 0 mm 5 mps 743 mmHg 88%
    22:00 +2°C° 0 mm 5 mps 743 mmHg 89%
    23:00 +2°C° 0 mm 5 mps 744 mmHg 86%

    Day after tomorrow, 16 December, Monday

    Time Temperature Precipitation Wind Pressure Humidity
    00:00 +2°C° 0 mm 5 mps 745 mmHg 83%
    01:00 +1°C° 0 mm 5 mps 746 mmHg 80%
    02:00 +1°C° 0 mm 5 mps 746 mmHg 81%
    03:00 +1°C° 0 mm 5 mps 746 mmHg 82%
    04:00 +1°C° 0 mm 5 mps 747 mmHg 83%
    05:00 +1°C° 0 mm 5 mps 747 mmHg 84%
    06:00 +1°C° 0 mm 4 mps 748 mmHg 86%
    07:00 +1°C° 0 mm 4 mps 748 mmHg 87%
    08:00 +1°C° 0 mm 4 mps 749 mmHg 86%
    09:00 +1°C° 0 mm 4 mps 749 mmHg 86%
    10:00 +3°C° 0 mm 4 mps 750 mmHg 85%
    11:00 +3°C° 0 mm 3 mps 750 mmHg 84%
    12:00 +4°C° 0 mm 3 mps 750 mmHg 83%
    13:00 +4°C° 0 mm 3 mps 750 mmHg 82%
    14:00 +4°C° 0 mm 3 mps 750 mmHg 85%
    15:00 +4°C° 0 mm 3 mps 750 mmHg 89%
    16:00 +3°C° 0 mm 3 mps 750 mmHg 92%
    17:00 +4°C° 0 mm 3 mps 750 mmHg 92%
    18:00 +4°C° 0 mm 3 mps 749 mmHg 92%
    19:00 +4°C° 0 mm 3 mps 749 mmHg 92%
    20:00 +4°C° 0 mm 3 mps 749 mmHg 91%
    21:00 +4°C° 0 mm 3 mps 749 mmHg 89%
    22:00 +4°C° 0 mm 4 mps 749 mmHg 87%
    23:00 +4°C° 0 mm 4 mps 749 mmHg 87%

    17 December, Tuesday

    Time Temperature Precipitation Wind Pressure Humidity
    00:00 +4°C° 0 mm 4 mps 749 mmHg 88%
    01:00 +4°C° 0 mm 4 mps 749 mmHg 88%
    02:00 +4°C° 0 mm 4 mps 748 mmHg 89%
    03:00 +4°C° 0 mm 4 mps 748 mmHg 90%
    04:00 +4°C° 0 mm 4 mps 748 mmHg 90%
    05:00 +4°C° 0 mm 4 mps 748 mmHg 90%
    06:00 +4°C° 0 mm 4 mps 747 mmHg 90%
    07:00 +4°C° 0 mm 4 mps 747 mmHg 90%
    08:00 +4°C° 0 mm 4 mps 747 mmHg 88%
    09:00 +4°C° 0 mm 4 mps 747 mmHg 87%
    10:00 +5°C° 0 mm 4 mps 748 mmHg 85%
    11:00 +5°C° 0 mm 4 mps 747 mmHg 84%
    12:00 +6°C° 0 mm 4 mps 747 mmHg 84%
    13:00 +7°C° 0 mm 3 mps 747 mmHg 83%
    14:00 +7°C° 0 mm 3 mps 747 mmHg 86%
    15:00 +5°C° 0 mm 3 mps 747 mmHg 89%
    16:00 +5°C° 0 mm 3 mps 747 mmHg 92%
    17:00 +5°C° 0 mm 3 mps 747 mmHg 92%
    18:00 +5°C° 0 mm 3 mps 747 mmHg 92%
    19:00 +5°C° 0 mm 4 mps 747 mmHg 92%
    20:00 +5°C° 0 mm 4 mps 748 mmHg 91%
    21:00 +5°C° 0 mm 3 mps 748 mmHg 91%
    22:00 +5°C° 0 mm 3 mps 748 mmHg 91%
    23:00 +5°C° 0 mm 3 mps 748 mmHg 91%

    18 December, Wednesday

    Time Temperature Precipitation Wind Pressure Humidity
    00:00 +5°C° 0 mm 3 mps 748 mmHg 92%
    01:00 +4°C° 0 mm 3 mps 748 mmHg 92%
    02:00 +4°C° 0 mm 3 mps 748 mmHg 92%
    03:00 +4°C° 0 mm 3 mps 748 mmHg 93%
    04:00 +4°C° 0 mm 3 mps 748 mmHg 93%
    05:00 +4°C° 0 mm 3 mps 748 mmHg 93%
    06:00 +3°C° 0 mm 3 mps 748 mmHg 93%
    07:00 +3°C° 0 mm 3 mps 747 mmHg 93%
    08:00 +4°C° 0 mm 3 mps 748 mmHg 91%
    09:00 +4°C° 0 mm 3 mps 748 mmHg 88%
    10:00 +5°C° 0 mm 3 mps 748 mmHg 85%
    11:00 +7°C° 0 mm 3 mps 748 mmHg 82%
    12:00 +6°C° 0 mm 4 mps 748 mmHg 79%
    13:00 +7°C° 0 mm 4 mps 748 mmHg 76%
    14:00 +6°C° 0 mm 4 mps 748 mmHg 79%
    15:00 +7°C° 0 mm 3 mps 748 mmHg 82%
    16:00 +5°C° 0 mm 3 mps 749 mmHg 86%
    17:00 +5°C° 0 mm 3 mps 749 mmHg 87%
    18:00 +5°C° 0 mm 3 mps 749 mmHg 88%
    19:00 +4°C° 0 mm 3 mps 750 mmHg 89%
    20:00 +4°C° 0 mm 3 mps 750 mmHg 89%
    21:00 +4°C° 0 mm 3 mps 751 mmHg 89%
    22:00 +4°C° 0 mm 3 mps 751 mmHg 89%
    23:00 +3°C° 0 mm 3 mps 752 mmHg 91%

    19 December, Thursday

    Time Temperature Precipitation Wind Pressure Humidity
    00:00 +3°C° 0 mm 2 mps 752 mmHg 92%
    01:00 +3°C° 0 mm 2 mps 752 mmHg 93%
    02:00 +4°C° 0 mm 1 mps 752 mmHg 93%
    03:00 +4°C° 0 mm 1 mps 753 mmHg 93%
    04:00 +4°C° 0 mm 1 mps 753 mmHg 94%
    05:00 +4°C° 0 mm 1 mps 753 mmHg 94%
    06:00 +3°C° 0 mm 1 mps 753 mmHg 94%
    07:00 +3°C° 0 mm 1 mps 753 mmHg 94%
    08:00 +3°C° 0 mm 1 mps 754 mmHg 94%
    09:00 +4°C° 0 mm 1 mps 754 mmHg 93%
    10:00 +3°C° 0 mm 0 mps 754 mmHg 92%
    11:00 +4°C° 0 mm 1 mps 754 mmHg 91%
    12:00 +4°C° 0 mm 1 mps 754 mmHg 89%
    13:00 +5°C° 0 mm 1 mps 754 mmHg 88%
    14:00 +4°C° 0 mm 1 mps 754 mmHg 89%
    15:00 +3°C° 0 mm 1 mps 754 mmHg 91%
    16:00 +2°C° 0 mm 2 mps 754 mmHg 92%
    17:00 +2°C° 0 mm 2 mps 754 mmHg 92%
    18:00 +1°C° 0 mm 2 mps 754 mmHg 92%
    19:00 +1°C° 0 mm 2 mps 754 mmHg 92%
    20:00 0°C° 0 mm 3 mps 753 mmHg 92%
    21:00 0°C° 0 mm 3 mps 753 mmHg 92%
    22:00 0°C° 0 mm 3 mps 753 mmHg 92%
    23:00 0°C° 0 mm 3 mps 753 mmHg 92%
    Show more